TimeCEST,TemperatureF,Dew PointF,Humidity,Sea Level PressureIn,VisibilityMPH,Wind Direction,Wind SpeedMPH,Gust SpeedMPH,PrecipitationIn,Events,Conditions,WindDirDegrees,DateUTC
12:45 AM,30.2,28.4,93,30.42,5.0,NNW,2.3,-,N/A,,Unknown,330,2013-10-04 22:45:00
1:45 AM,30.2,28.4,93,30.42,5.0,Calm,Calm,-,N/A,,Unknown,0,2013-10-04 23:45:00
2:00 AM,30,28,86,30.44,5,Calm,Calm,,,,Partly Cloudy,,2013-10-05 00:00:00
2:45 AM,30.2,26.6,86,30.42,5.0,NE,1.2,-,N/A,,Unknown,50,2013-10-05 00:45:00
3:45 AM,30.2,28.4,93,30.39,5.0,SE,1.2,-,N/A,,Unknown,130,2013-10-05 01:45:00
4:45 AM,28.4,24.8,86,30.39,5.0,Calm,Calm,-,N/A,,Unknown,0,2013-10-05 02:45:00
5:45 AM,28.4,24.8,86,30.36,5.0,Calm,Calm,-,N/A,,Unknown,0,2013-10-05 03:45:00
6:15 AM,26.6,24.8,93,30.36,2.8,East,2.3,-,N/A,Fog,Fog,100,2013-10-05 04:15:00
6:45 AM,26.6,24.8,93,30.36,2.8,SE,2.3,-,N/A,Fog,Fog,140,2013-10-05 04:45:00
7:15 AM,28.4,24.8,86,30.36,2.8,ESE,3.5,-,N/A,,Partly Cloudy,120,2013-10-05 05:15:00
7:45 AM,33.8,30.2,87,30.36,3.7,ESE,4.6,-,N/A,,Partly Cloudy,120,2013-10-05 05:45:00
8:00 AM,34,30,81,30.36,4,ESE,4.5,,,,Partly Cloudy,120,2013-10-05 06:00:00
8:15 AM,35.6,32.0,87,30.36,4.3,SE,4.6,-,N/A,,Partly Cloudy,140,2013-10-05 06:15:00
8:45 AM,39.2,32.0,75,30.36,-9999.0,SE,4.6,-,N/A,,Clear,140,2013-10-05 06:45:00
9:15 AM,41.0,33.8,76,30.36,-9999.0,SE,6.9,-,N/A,,Clear,130,2013-10-05 07:15:00
9:45 AM,42.8,33.8,70,30.36,-9999.0,SSE,6.9,-,N/A,,Clear,150,2013-10-05 07:45:00
10:15 AM,46.4,35.6,66,30.36,-9999.0,SE,5.8,-,N/A,,Clear,140,2013-10-05 08:15:00
10:45 AM,48.2,35.6,62,30.33,-9999.0,SE,9.2,-,N/A,,Clear,140,2013-10-05 08:45:00
11:15 AM,51.8,35.6,54,30.33,-9999.0,ESE,9.2,-,N/A,,Clear,110,2013-10-05 09:15:00
11:45 AM,51.8,35.6,54,30.33,-9999.0,SE,10.4,-,N/A,,Clear,130,2013-10-05 09:45:00
12:15 PM,53.6,33.8,47,30.33,-9999.0,SSE,8.1,-,N/A,,Clear,150,2013-10-05 10:15:00
12:45 PM,55.4,33.8,44,30.33,-9999.0,ESE,9.2,-,N/A,,Clear,110,2013-10-05 10:45:00
1:15 PM,55.4,33.8,44,30.30,-9999.0,ESE,8.1,-,N/A,,Clear,120,2013-10-05 11:15:00
1:45 PM,57.2,33.8,41,30.30,-9999.0,East,10.4,-,N/A,,Clear,100,2013-10-05 11:45:00
2:00 PM,57,33,28,30.29,28,East,8.9,,,,Partly Cloudy,100,2013-10-05 12:00:00
2:15 PM,57.2,33.8,41,30.27,-9999.0,East,11.5,-,N/A,,Clear,100,2013-10-05 12:15:00
2:45 PM,57.2,33.8,41,30.27,-9999.0,ESE,9.2,-,N/A,,Clear,110,2013-10-05 12:45:00
3:15 PM,59.0,33.8,39,30.27,-9999.0,ESE,8.1,-,N/A,,Clear,110,2013-10-05 13:15:00
3:45 PM,59.0,33.8,39,30.27,-9999.0,ESE,6.9,-,N/A,,Clear,110,2013-10-05 13:45:00
4:15 PM,59.0,32.0,36,30.24,-9999.0,East,8.1,-,N/A,,Clear,100,2013-10-05 14:15:00
4:45 PM,57.2,33.8,41,30.24,-9999.0,ESE,6.9,-,N/A,,Clear,110,2013-10-05 14:45:00
5:15 PM,57.2,33.8,41,30.24,-9999.0,East,5.8,-,N/A,,Clear,100,2013-10-05 15:15:00
5:45 PM,55.4,33.8,44,30.24,-9999.0,ENE,8.1,-,N/A,,Clear,70,2013-10-05 15:45:00
6:15 PM,53.6,33.8,47,30.24,-9999.0,East,5.8,-,N/A,,Clear,80,2013-10-05 16:15:00
6:45 PM,51.8,33.8,50,30.24,-9999.0,East,3.5,-,N/A,,Clear,80,2013-10-05 16:45:00
7:15 PM,46.4,35.6,66,30.24,-9999.0,East,5.8,-,N/A,,Clear,80,2013-10-05 17:15:00
7:45 PM,44.6,35.6,71,30.24,-9999.0,ENE,3.5,-,N/A,,Clear,70,2013-10-05 17:45:00
8:00 PM,44,35,63,30.25,19,ENE,4.5,,,,Partly Cloudy,70,2013-10-05 18:00:00
8:15 PM,42.8,35.6,76,30.24,-9999.0,ENE,4.6,-,N/A,,Clear,70,2013-10-05 18:15:00
8:45 PM,41.0,33.8,76,30.24,-9999.0,East,3.5,-,N/A,,Clear,80,2013-10-05 18:45:00
9:15 PM,41.0,35.6,81,30.24,-9999.0,East,4.6,-,N/A,,Clear,80,2013-10-05 19:15:00
9:45 PM,39.2,33.8,81,30.24,-9999.0,East,4.6,-,N/A,,Clear,80,2013-10-05 19:45:00
10:45 PM,37.4,32.0,81,30.24,-9999.0,NNE,1.2,-,N/A,,Clear,20,2013-10-05 20:45:00
11:45 PM,37.4,33.8,87,30.24,-9999.0,East,3.5,-,N/A,,Clear,80,2013-10-05 21:45:00